Location: Archemont
(49.1579°N, 1.7598°E)
Time: 09:57:02
(UTC+00:00)

Vanguard 1 Rocket - Pass Details

Date: 21 April 2024
Orbit: 650 x 4220 km, 34.3° (Epoch: 29 May)

Event Time Altitude Azimuth Distance (km) Brightness Sun altitude
Rises 22:30:45 0° 257° (WSW) 3,965 10.8 -26.0°
Reaches altitude 10° 22:33:41 10° 242° (WSW) 3,366 10.2 -26.2°
Enters shadow 22:37:36 21° 214° (SW) 3,075 9.7 -26.4°
